Location: Invercargill
(46.4000°S, 168.3500°E)
Time: 19:17:48
(UTC+12:00)

Meteor 2-15 Rocket - Pass Details

Date: 14 May 2021
Orbit: 940 x 955 km, 82.5° (Epoch: 14 June)

Event Time Altitude Azimuth Distance (km) Brightness Sun altitude
Rises 18:31:43 0° 187° (S) 3,657 7.4 -11.5°
Reaches altitude 10° 18:34:18 10° 183° (S) 2,703 6.7 -12.0°
Maximum altitude 18:40:25 61° 103° (ESE) 1,082 4.5 -13.0°
Drops below altitude 10° 18:46:26 10° 23° (NNE) 2,664 6.7 -14.0°
Sets 18:48:57 0° 19° (NNE) 3,600 7.4 -14.4°
